ACRIMSAT

Satellite information

Favourite Embed

Satellite Type and Status

PAYLOADIN ORBIT

Key statistics

Satellite ACRIMSAT at a glance.

Uptime

9490

Days in orbit

Revolutions

≈ 14.7

Per day

Orbit

SSO

Sun Synchronous Orbit

Inclination

98.3

Latest

Satellite identification and parameters

Extended collection of information and parameters for ACRIMSAT.

Object identification

Identified? True

Debris? False

Object name: ACRIMSAT

International designator: 1999-070B

Object number (NORAD): 26033

Object ID (CCSDS): 26033

Country: UNITED STATES OF AMERICA (US)

Current information (Y/N): Y

RCS size: MEDIUM

Orbital parameters

Period: 98.25 minutes

Inclination: 98.3172 deg

SMA: 7053.133 km

Apoapsis: 693.218 km

Periapsis: 656.778 km

RAAN: 124.7344 deg

Eccentricy: 0.00258327

Argument of periapsis: 332.396 deg

Mean anomaly: 27.587 deg

Mean motion: 14.65647863 rev/day

Mean motion (dot): 0.00001039 rev/day2

B* drag term: 0.00019968545 1/REarth

Two-line elements (TLE)

Creation date: Dec. 13, 2025, 5:47 p.m.

Reference frame: TEME

Reference center: EARTH

Epoch: Dec. 13, 2025, 8:05 a.m. UTC

TLE line 0: 0 ACRIMSAT

TLE line 1: 1 26033U 99070B 25347.33734423 .00001039 00000-0 19969-3 0 9999

TLE line 2: 2 26033 98.3172 124.7344 0025833 332.3960 27.5870 14.65647863385665

Live tracking on map

Real-time ground track for satellite ACRIMSAT.

In-orbit conjunctions

A list of the most updated potential collisions computed for object ACRIMSAT.

Target Orbit TCA Probability of collision Miss distance Type
FENGYUN 1C DEB SSO 2025-11-23 19:59:28 0.0001019321 773.0 (m) DEBRIS
METEOR 2-5 DEB LEO 2025-11-20 13:16:05 0.0001915579 996.0 (m) DEBRIS
CZ-4 DEB SSO 2024-11-10 21:06:08 0.0008575405 124.0 (m) DEBRIS

Associated space launch

The KOMPSAT 1 (Korean Multi-purpose Satellite 1) Earth observation satellite was developed jointly by KARI and TRW. ACRIMSat (Active Cavity Radiometric Irradiance Monitor Satellite) was a satellite to ascertain the extent of solar radiation variability.

ACRIMSAT was lifted into orbit during the mission ‘Taurus 2110 | Arirang-1 & ACRIMSat’, on board a Minotaur-C 2110 space rocket.

The launch took place on Dec. 21, 1999, 7:13 a.m. from Space Launch Complex 576E.

For more information about the launch, click the button.

Launch to space Taurus 2110 | Arirang-1 & ACRIMSat
Taurus 2110 | Arirang-1 & ACRIMSat

Agency: N/A

Status: Launch Successful

Launch date: Dec. 21, 1999, 7:13 a.m. UTC

Rocket: Minotaur-C 2110

Launch pad: Space Launch Complex 576E

Location: Vandenberg SFB, CA, USA

...

Latest news about this satellite

There are no fresh news available about this satellite. Check back as we update our databases every day.


Newsletter sign-up

Weekly statistics, charts and insights to help you stay on top of the space industry.